Weather History for KJMR - September, 2013

Change the Weather History Date:

Thursday, September 19, 2013

  Actual Average Record
Temperature  
Mean Temperature 66 °F -  
Max Temperature 73 °F 69 °F 89 °F (1984)
Min Temperature 57 °F 44 °F 25 °F (1971)
Cooling Degree Days 1    
Growing Degree Days 16 (Base 50)    
Moisture  
Dew Point 63 °F    
Average Humidity 91    
Maximum Humidity 100    
Minimum Humidity 73    
Precipitation  
Precipitation 0.00 in - - ()
Sea Level Pressure  
Sea Level Pressure 29.73 in    
Wind  
Wind Speed 2 mph (WSW)    
Max Wind Speed 24 mph    
Max Gust Speed 33 mph    
Visibility 6 miles    
Events Rain , Thunderstorm    
Averages and records for this station are not official NWS values.
T = Trace of Precipitation, MM = Missing Value Source: NWS Daily Summary

Daily Weather History Graph

Daily Weather History Graph

Search for Another Location

Airport or City:

Trip Planner

Search our weather history database for the weather conditions in past years. The results will help you decide how hot, cold, wet, or windy it might be!

Date:

Astronomy

Sep. 19, 2013 Rise Set
Actual Time 6:56 AM CDT 7:16 PM CDT
Civil Twilight 6:26 AM CDT 7:45 PM CDT
Nautical Twilight 5:51 AM CDT 8:20 PM CDT
Astronomical Twilight 5:15 AM CDT 8:57 PM CDT
Moon 7:10 PM CDT (9/19) 7:09 AM CDT (9/19)
Length of Visible Light 13h 19m
Length of Day
12h 19m
Full, 100% of the Moon is Illuminated
Sep 19
Full
Sep 26
Last Quarter
Oct 4
New
Oct 11
First Quarter
Oct 18
Full

Hourly Weather History & Observations

Time (CDT) Temp. Dew Point Humidity Pressure Visibility Wind Dir Wind Speed Gust Speed Precip Events Conditions
12:15 AM 64.4 °F 64.4 °F 100% 29.72 in 1.8 mi Calm Calm - N/A   Mist
12:34 AM 64.4 °F 64.4 °F 100% 29.72 in 1.8 mi Calm Calm - N/A   Mist
12:55 AM 64.4 °F 64.4 °F 100% 29.72 in 2.0 mi Calm Calm - N/A   Clear
1:14 AM 64.4 °F 64.4 °F 100% 29.74 in 2.5 mi Calm Calm - N/A   Scattered Clouds
1:34 AM 64.4 °F 62.6 °F 94% 29.75 in 1.2 mi Calm Calm - N/A   Mostly Cloudy
1:54 AM 62.6 °F 62.6 °F 100% 29.75 in 1.2 mi Calm Calm - N/A   Mostly Cloudy
2:14 AM 62.6 °F 62.6 °F 100% 29.74 in 1.5 mi Calm Calm - N/A   Scattered Clouds
2:35 AM 62.6 °F 62.6 °F 100% 29.73 in 1.0 mi Calm Calm - N/A   Scattered Clouds
2:54 AM 62.6 °F 62.6 °F 100% 29.72 in 1.2 mi Calm Calm - N/A   Mostly Cloudy
3:14 AM 62.6 °F 62.6 °F 100% 29.72 in 1.5 mi Calm Calm - N/A   Scattered Clouds
3:35 AM 62.6 °F 62.6 °F 100% 29.71 in 1.2 mi Calm Calm - N/A   Mostly Cloudy
3:54 AM 62.6 °F 62.6 °F 100% 29.71 in 1.5 mi East 4.6 mph - N/A   Mostly Cloudy
4:15 AM 64.4 °F 62.6 °F 94% 29.71 in 2.0 mi Calm Calm - N/A   Clear
4:34 AM 64.4 °F 62.6 °F 94% 29.73 in 1.8 mi Calm Calm - N/A   Mostly Cloudy
4:55 AM 64.4 °F 64.4 °F 100% 29.72 in 2.5 mi Calm Calm - N/A Rain Light Rain
5:14 AM 64.4 °F 62.6 °F 94% 29.67 in 2.0 mi Calm Calm - N/A   Mostly Cloudy
5:35 AM 64.4 °F 64.4 °F 100% 29.67 in 3.0 mi ESE 5.8 mph - N/A   Clear
5:54 AM 64.4 °F 64.4 °F 100% 29.67 in 4.0 mi ESE 5.8 mph - N/A   Clear
6:14 AM 64.4 °F 64.4 °F 100% 29.68 in 5.0 mi Calm Calm - N/A   Clear
6:35 AM 64.4 °F 64.4 °F 100% 29.68 in 5.0 mi Calm Calm - N/A   Clear
6:54 AM 64.4 °F 64.4 °F 100% 29.68 in 2.5 mi Calm Calm - N/A   Clear
7:15 AM 64.4 °F 64.4 °F 100% 29.70 in 2.0 mi Calm Calm - N/A   Clear
7:34 AM 64.4 °F 64.4 °F 100% 29.70 in 1.2 mi Calm Calm - N/A   Mist
7:55 AM 64.4 °F 64.4 °F 100% 29.70 in 1.5 mi Calm Calm - N/A   Mist
8:14 AM 64.4 °F 64.4 °F 100% 29.69 in 1.5 mi Calm Calm - N/A   Mist
8:34 AM 64.4 °F 64.4 °F 100% 29.69 in 1.8 mi Calm Calm - N/A   Mist
8:54 AM 64.4 °F 64.4 °F 100% 29.69 in 1.8 mi Calm Calm - N/A   Scattered Clouds
9:14 AM 68.0 °F 68.0 °F 100% 29.70 in 4.0 mi Calm Calm - N/A   Scattered Clouds
9:35 AM 69.8 °F 68.0 °F 94% 29.69 in 5.0 mi Calm Calm - N/A   Scattered Clouds
9:54 AM 69.8 °F 69.8 °F 100% 29.67 in 7.0 mi Calm Calm - N/A   Scattered Clouds
10:15 AM 69.8 °F 69.8 °F 100% 29.67 in 7.0 mi Calm Calm - N/A   Scattered Clouds
10:34 AM 69.8 °F 68.0 °F 94% 29.67 in 5.0 mi Calm Calm - N/A   Clear
10:54 AM 69.8 °F 68.0 °F 94% 29.70 in 7.0 mi WNW 9.2 mph 18.4 mph N/A Thunderstorm Thunderstorm
11:00 AM 68.0 °F 66.2 °F 94% 29.72 in 7.0 mi WNW 10.4 mph - N/A Thunderstorm Mostly Cloudy
11:25 AM 68.0 °F 66.2 °F 94% 29.76 in 4.0 mi SSW 10.4 mph - N/A   Overcast
11:45 AM 66.2 °F 64.4 °F 94% 29.68 in 3.0 mi WNW 24.2 mph 33.4 mph N/A   Overcast
12:05 PM 66.2 °F 64.4 °F 94% 29.69 in 10.0 mi WSW 16.1 mph 33.4 mph N/A   Overcast
12:25 PM 66.2 °F 62.6 °F 88% 29.74 in 10.0 mi Calm Calm - N/A   Overcast
12:45 PM 66.2 °F 62.6 °F 88% 29.69 in 7.0 mi Calm Calm - N/A   Overcast
1:05 PM 66.2 °F 62.6 °F 88% 29.70 in 10.0 mi Calm Calm - N/A   Overcast
1:25 PM 64.4 °F 60.8 °F 88% 29.67 in 7.0 mi Calm Calm - N/A   Overcast
1:45 PM 66.2 °F 64.4 °F 94% 29.69 in 10.0 mi Calm Calm - N/A   Scattered Clouds
2:05 PM 66.2 °F 64.4 °F 94% 29.71 in 10.0 mi Calm Calm - N/A   Clear
2:25 PM 68.0 °F 64.4 °F 88% 29.72 in 10.0 mi South 5.8 mph - N/A   Scattered Clouds
2:45 PM 68.0 °F 62.6 °F 83% 29.72 in 10.0 mi SW 4.6 mph - N/A   Mostly Cloudy
3:05 PM 71.6 °F 66.2 °F 83% 29.73 in 10.0 mi Calm Calm - N/A   Overcast
3:25 PM 69.8 °F 62.6 °F 78% 29.73 in 10.0 mi Calm Calm - N/A   Overcast
3:45 PM 69.8 °F 64.4 °F 83% 29.74 in 10.0 mi WSW 3.5 mph - N/A   Overcast
4:05 PM 71.6 °F 64.4 °F 78% 29.73 in 10.0 mi WSW 5.8 mph - N/A   Overcast
4:25 PM 71.6 °F 64.4 °F 78% 29.73 in 10.0 mi WSW 6.9 mph - N/A   Overcast
4:45 PM 71.6 °F 64.4 °F 78% 29.72 in 10.0 mi West 9.2 mph - N/A   Mostly Cloudy
5:05 PM 73.4 °F 64.4 °F 73% 29.72 in 10.0 mi West 12.7 mph - N/A   Mostly Cloudy
5:25 PM 71.6 °F 62.6 °F 73% 29.73 in 10.0 mi West 10.4 mph - N/A   Mostly Cloudy
5:45 PM 71.6 °F 62.6 °F 73% 29.74 in 10.0 mi West 9.2 mph - N/A   Scattered Clouds
6:05 PM 71.6 °F 62.6 °F 73% 29.76 in 10.0 mi West 9.2 mph - N/A   Mostly Cloudy
6:25 PM 71.6 °F 62.6 °F 73% 29.75 in 10.0 mi Calm Calm - N/A   Scattered Clouds
6:45 PM 68.0 °F 60.8 °F 78% 29.76 in 10.0 mi Calm Calm - N/A   Clear
7:05 PM 68.0 °F 60.8 °F 78% 29.77 in 10.0 mi Calm Calm - N/A   Mostly Cloudy
7:25 PM 66.2 °F 60.8 °F 83% 29.78 in 10.0 mi West 8.1 mph - N/A   Overcast
7:45 PM 66.2 °F 60.8 °F 83% 29.79 in 10.0 mi WNW 6.9 mph - N/A   Overcast
8:05 PM 66.2 °F 62.6 °F 88% 29.79 in 10.0 mi Calm Calm - N/A   Overcast
8:25 PM 66.2 °F 60.8 °F 83% 29.79 in 10.0 mi Calm Calm - N/A   Mostly Cloudy
8:45 PM 66.2 °F 60.8 °F 83% 29.79 in 10.0 mi Calm Calm - N/A   Clear
9:05 PM 64.4 °F 59.0 °F 83% 29.79 in 10.0 mi Calm Calm - N/A   Clear
9:25 PM 64.4 °F 59.0 °F 83% 29.79 in 10.0 mi Calm Calm - N/A   Clear
9:45 PM 60.8 °F 57.2 °F 88% 29.78 in 10.0 mi Calm Calm - N/A   Clear
10:05 PM 60.8 °F 57.2 °F 88% 29.78 in 10.0 mi Calm Calm - N/A   Clear
10:25 PM 60.8 °F 57.2 °F 88% 29.78 in 10.0 mi Calm Calm - N/A   Clear
10:45 PM 59.0 °F 57.2 °F 94% 29.78 in 10.0 mi Calm Calm - N/A   Clear
11:05 PM 59.0 °F 57.2 °F 94% - 7.0 mi Calm Calm - N/A   Clear
11:25 PM 59.0 °F 57.2 °F 94% 29.79 in 10.0 mi Calm Calm - N/A   Clear
11:45 PM 57.2 °F 55.4 °F 94% 29.79 in 10.0 mi Calm Calm - N/A   Clear